| time (UTC) | temp C | wind direction | speed KPH | gust KPH | rain 1hr cm | rain 24hr cm | rain mn cm | humidity % | barometer mb |
| 20260506155537 | 25 | 244 | 4.8 | 16.1 | 0.00 | 0.00 | 0.00 | 41 | 1004.3 |
| 20260506154517 | 26 | 214 | 1.6 | 6.4 | 0.00 | 0.00 | 0.00 | 37 | 1004.2 |
| 20260506153516 | 26 | 214 | 1.6 | 6.4 | 0.00 | 0.00 | 0.00 | 37 | 1004.2 |
| 20260506152517 | 26 | 169 | 0.0 | 3.2 | 0.00 | 0.00 | 0.00 | 35 | 1004.2 |
| 20260506151516 | 26 | 201 | 4.8 | 14.5 | 0.00 | 0.00 | 0.00 | 35 | 1004.3 |
| 20260506150516 | 26 | 0.0 | 0.0 | 0.00 | 0.00 | 0.00 | 37 | 1004.3 | |
| 20260506145517 | 26 | 222 | 1.6 | 6.4 | 0.00 | 0.00 | 0.00 | 36 | 1004.5 |
| 20260506144517 | 27 | 234 | 3.2 | 8.0 | 0.00 | 0.00 | 0.00 | 34 | 1004.3 |
| 20260506143516 | 27 | 0.0 | 9.7 | 0.00 | 0.00 | 0.00 | 35 | 1004.4 | |
| 20260506142516 | 27 | 204 | 1.6 | 14.5 | 0.00 | 0.00 | 0.00 | 34 | 1004.4 |
| 20260506141516 | 27 | 207 | 4.8 | 14.5 | 0.00 | 0.00 | 0.00 | 32 | 1004.4 |
| 20260506140516 | 27 | 0.0 | 9.7 | 0.00 | 0.00 | 0.00 | 31 | 1004.4 | |
| 20260506135516 | 27 | 188 | 4.8 | 14.5 | 0.00 | 0.00 | 0.00 | 33 | 1004.5 |
| 20260506134516 | 27 | 231 | 1.6 | 16.1 | 0.00 | 0.00 | 0.00 | 34 | 1004.6 |
| 20260506133517 | 27 | 217 | 1.6 | 8.0 | 0.00 | 0.00 | 0.00 | 36 | 1004.7 |
| 20260506132516 | 26 | 232 | 0.0 | 17.7 | 0.00 | 0.00 | 0.00 | 36 | 1004.8 |
| 20260506131516 | 27 | 0.0 | 30.6 | 0.00 | 0.00 | 0.00 | 35 | 1004.9 | |
| 20260506130516 | 27 | 0.0 | 19.3 | 0.00 | 0.00 | 0.00 | 37 | 1005.0 | |
| 20260506125516 | 26 | 61 | 0.0 | 19.3 | 0.00 | 0.00 | 0.00 | 39 | 1005.2 |
| 20260506124516 | 26 | 188 | 3.2 | 14.5 | 0.00 | 0.00 | 0.00 | 41 | 1005.2 |
| 20260506123516 | 26 | 121 | 1.6 | 16.1 | 0.00 | 0.00 | 0.00 | 39 | 1005.5 |
| 20260506122517 | 26 | 74 | 3.2 | 17.7 | 0.00 | 0.00 | 0.00 | 39 | 1005.5 |
| 20260506121516 | 26 | 151 | 14.5 | 27.4 | 0.00 | 0.00 | 0.00 | 38 | 1005.7 |
| 20260506120516 | 25 | 53 | 3.2 | 16.1 | 0.00 | 0.00 | 0.00 | 40 | 1005.8 |
| 20260506115516 | 25 | 0.0 | 19.3 | 0.00 | 0.00 | 0.00 | 42 | 1006.0 | |
| 20260506114536 | 25 | 138 | 0.0 | 16.1 | 0.00 | 0.00 | 0.00 | 42 | 1006.1 |
| 20260506113516 | 26 | 77 | 3.2 | 9.7 | 0.00 | 0.00 | 0.00 | 41 | 1006.2 |
| 20260506112516 | 24 | 157 | 4.8 | 16.1 | 0.00 | 0.00 | 0.00 | 44 | 1006.4 |
| 20260506111517 | 25 | 32 | 8.0 | 29.0 | 0.00 | 0.00 | 0.00 | 43 | 1006.5 |
| 20260506110516 | 25 | 67 | 1.6 | 14.5 | 0.00 | 0.00 | 0.00 | 45 | 1006.6 |
| 20260506105516 | 24 | 54 | 3.2 | 20.9 | 0.00 | 0.00 | 0.00 | 45 | 1006.8 |
| 20260506104516 | 25 | 73 | 9.7 | 20.9 | 0.00 | 0.00 | 0.00 | 45 | 1007.1 |
| 20260506103516 | 24 | 60 | 11.3 | 24.1 | 0.00 | 0.00 | 0.00 | 47 | 1006.9 |
| 20260506102515 | 24 | 45 | 3.2 | 12.9 | 0.00 | 0.00 | 0.00 | 47 | 1007.2 |
| 20260506101535 | 24 | 57 | 9.7 | 19.3 | 0.00 | 0.00 | 0.00 | 47 | 1007.3 |
| 20260506100515 | 24 | 44 | 8.0 | 19.3 | 0.00 | 0.00 | 0.00 | 46 | 1007.4 |
| 20260506095537 | 23 | 108 | 6.4 | 14.5 | 0.00 | 0.00 | 0.00 | 46 | 1007.6 |
| 20260506094515 | 24 | 133 | 4.8 | 12.9 | 0.00 | 0.00 | 0.00 | 46 | 1007.9 |
| 20260506093515 | 25 | 102 | 3.2 | 22.5 | 0.00 | 0.00 | 0.00 | 43 | 1007.8 |
| 20260506092556 | 23 | 324 | 0.0 | 11.3 | 0.00 | 0.00 | 0.00 | 46 | 1008.0 |
| 20260506091535 | 23 | 245 | 1.6 | 24.1 | 0.00 | 0.00 | 0.00 | 45 | 1008.1 |
| 20260506090515 | 23 | 116 | 1.6 | 11.3 | 0.00 | 0.00 | 0.00 | 46 | 1008.2 |
| 20260506085516 | 23 | 164 | 4.8 | 11.3 | 0.00 | 0.00 | 0.00 | 45 | 1008.2 |
| 20260506084516 | 23 | 0.0 | 11.3 | 0.00 | 0.00 | 0.00 | 45 | 1008.1 | |
| 20260506083515 | 23 | 124 | 4.8 | 11.3 | 0.00 | 0.00 | 0.00 | 45 | 1008.3 |
| 20260506082536 | 24 | 103 | 1.6 | 14.5 | 0.00 | 0.00 | 0.00 | 43 | 1008.2 |
| 20260506081515 | 25 | 59 | 0.0 | 8.0 | 0.00 | 0.00 | 0.00 | 44 | 1008.3 |
| 20260506080515 | 24 | 92 | 0.0 | 6.4 | 0.00 | 0.00 | 0.00 | 45 | 1008.3 |
| 20260506073518 | 23 | 298 | 0.0 | 1.6 | 0.00 | 0.00 | 0.00 | 53 | 1008.6 |
| 20260506072518 | 22 | 0.0 | 0.0 | 0.00 | 0.00 | 0.00 | 50 | 1008.9 | |
| 20260506071518 | 23 | 0.0 | 0.0 | 0.00 | 0.00 | 0.00 | 50 | 1009.0 | |
| 20260506070518 | 22 | 0.0 | 0.0 | 0.00 | 0.00 | 0.00 | 53 | 1009.1 | |
| 20260506062517 | 21 | 0.0 | 0.0 | 0.00 | 0.00 | 0.00 | 56 | 1009.5 | |
| 20260506061518 | 20 | 0.0 | 0.0 | 0.00 | 0.00 | 0.00 | 63 | 1009.5 | |
| 20260506060517 | 20 | 0.0 | 0.0 | 0.00 | 0.00 | 0.00 | 63 | 1009.5 | |
| 20260506050515 | 14 | 0.0 | 0.0 | 0.00 | 0.00 | 0.00 | 82 | 1009.5 | |
| 20260506044515 | 14 | 0.0 | 0.0 | 0.00 | 0.00 | 0.00 | 81 | 1009.5 | |
| 20260506043515 | 14 | 0.0 | 0.0 | 0.00 | 0.00 | 0.00 | 80 | 1009.5 | |
| 20260506042515 | 14 | 0.0 | 0.0 | 0.00 | 0.00 | 0.00 | 78 | 1009.3 | |
| 20260506041535 | 14 | 0.0 | 0.0 | 0.00 | 0.00 | 0.00 | 78 | 1009.3 | |
| 20260506040516 | 14 | 0.0 | 0.0 | 0.00 | 0.00 | 0.00 | 78 | 1009.2 | |
| 20260506035515 | 14 | 0.0 | 0.0 | 0.00 | 0.00 | 0.00 | 78 | 1009.1 | |
| 20260506034534 | 14 | 0.0 | 0.0 | 0.00 | 0.00 | 0.00 | 78 | 1009.0 | |
| 20260506033515 | 15 | 0.0 | 0.0 | 0.00 | 0.00 | 0.00 | 77 | 1009.0 | |
| 20260506032536 | 15 | 0.0 | 0.0 | 0.00 | 0.00 | 0.00 | 76 | 1008.9 | |
| 20260506031515 | 15 | 0.0 | 3.2 | 0.00 | 0.00 | 0.00 | 76 | 1009.0 | |
| 20260506030514 | 15 | 0.0 | 0.0 | 0.00 | 0.00 | 0.00 | 76 | 1009.0 | |
| 20260506025514 | 15 | 0.0 | 6.4 | 0.00 | 0.00 | 0.00 | 76 | 1009.0 | |
| 20260506024537 | 15 | 0.0 | 0.0 | 0.00 | 0.00 | 0.00 | 76 | 1009.0 | |
| 20260506023517 | 15 | 0.0 | 0.0 | 0.00 | 0.00 | 0.00 | 77 | 1009.1 | |
| 20260506022517 | 15 | 0.0 | 0.0 | 0.00 | 0.00 | 0.00 | 77 | 1009.1 | |
| 20260506021517 | 15 | 0.0 | 6.4 | 0.00 | 0.00 | 0.00 | 77 | 1009.0 | |
| 20260506020516 | 15 | 0.0 | 6.4 | 0.00 | 0.00 | 0.00 | 77 | 1008.9 | |
| 20260506015517 | 15 | 0.0 | 0.0 | 0.00 | 0.00 | 0.00 | 76 | 1008.9 | |
| 20260506014516 | 16 | 0.0 | 0.0 | 0.00 | 0.00 | 0.00 | 75 | 1008.7 | |
| 20260506013516 | 16 | 0.0 | 9.7 | 0.00 | 0.00 | 0.00 | 75 | 1008.7 | |
| 20260506012516 | 16 | 210 | 4.8 | 11.3 | 0.00 | 0.00 | 0.00 | 75 | 1008.6 |
| 20260506011516 | 16 | 233 | 3.2 | 12.9 | 0.00 | 0.00 | 0.00 | 74 | 1008.5 |
| 20260506010517 | 16 | 0.0 | 8.0 | 0.00 | 0.00 | 0.00 | 74 | 1008.4 | |
| 20260506005516 | 16 | 212 | 4.8 | 11.3 | 0.00 | 0.00 | 0.00 | 74 | 1008.3 |
| 20260506004516 | 16 | 233 | 1.6 | 8.0 | 0.00 | 0.00 | 0.00 | 74 | 1008.3 |
| 20260506003516 | 16 | 0.0 | 9.7 | 0.00 | 0.00 | 0.00 | 73 | 1008.3 | |
| 20260506002516 | 16 | 221 | 1.6 | 11.3 | 0.00 | 0.00 | 0.00 | 72 | 1008.3 |
| 20260506001516 | 17 | 0.0 | 6.4 | 0.00 | 0.00 | 0.00 | 71 | 1008.2 | |
| 20260506000517 | 17 | 218 | 0.0 | 9.7 | 0.00 | 0.00 | 0.00 | 71 | 1008.1 |
| 20260505235517 | 17 | 244 | 0.0 | 8.0 | 0.00 | 0.00 | 0.00 | 71 | 1007.8 |
| 20260505234516 | 17 | 0.0 | 4.8 | 0.00 | 0.00 | 0.00 | 70 | 1007.8 | |
| 20260505233536 | 17 | 225 | 1.6 | 4.8 | 0.00 | 0.00 | 0.00 | 70 | 1007.7 |
| 20260505232516 | 16 | 294 | 0.0 | 4.8 | 0.00 | 0.00 | 0.00 | 71 | 1007.5 |
| 20260505231516 | 16 | 0.0 | 0.0 | 0.00 | 0.00 | 0.00 | 71 | 1007.4 | |
| 20260505230516 | 16 | 0.0 | 0.0 | 0.00 | 0.00 | 0.00 | 72 | 1007.2 | |
| 20260505225517 | 16 | 0.0 | 0.0 | 0.00 | 0.00 | 0.00 | 72 | 1006.9 | |
| 20260505224516 | 16 | 0.0 | 0.0 | 0.00 | 0.00 | 0.00 | 71 | 1006.7 | |
| 20260505223516 | 16 | 0.0 | 0.0 | 0.00 | 0.00 | 0.00 | 70 | 1006.4 | |
| 20260505222516 | 16 | 0.0 | 0.0 | 0.00 | 0.00 | 0.00 | 69 | 1006.3 | |
| 20260505221516 | 17 | 0.0 | 0.0 | 0.00 | 0.00 | 0.00 | 67 | 1006.3 | |
| 20260505220536 | 17 | 0.0 | 0.0 | 0.00 | 0.00 | 0.00 | 66 | 1006.3 | |
| 20260505215536 | 17 | 229 | 0.0 | 1.6 | 0.00 | 0.00 | 0.00 | 64 | 1006.3 |
| 20260505214516 | 18 | 0.0 | 0.0 | 0.00 | 0.00 | 0.00 | 63 | 1006.2 | |
| 20260505213536 | 18 | 0.0 | 4.8 | 0.00 | 0.00 | 0.00 | 62 | 1006.2 | |
| 20260505212515 | 18 | 203 | 3.2 | 11.3 | 0.00 | 0.00 | 0.00 | 62 | 1006.0 |
| 20260505211516 | 18 | 210 | 0.0 | 3.2 | 0.00 | 0.00 | 0.00 | 62 | 1006.0 |
| 20260505210515 | 17 | 182 | 1.6 | 11.3 | 0.00 | 0.00 | 0.00 | 63 | 1005.9 |
| 20260505205515 | 16 | 225 | 0.0 | 11.3 | 0.00 | 0.00 | 0.00 | 66 | 1005.9 |
| 20260505204516 | 15 | 0.0 | 0.0 | 0.00 | 0.00 | 0.00 | 68 | 1005.7 | |
| 20260505203536 | 15 | 0.0 | 0.0 | 0.00 | 0.00 | 0.00 | 70 | 1005.6 | |
| 20260505202518 | 15 | 0.0 | 0.0 | 0.00 | 0.00 | 0.00 | 70 | 1005.4 | |
| 20260505201518 | 15 | 0.0 | 0.0 | 0.00 | 0.00 | 0.00 | 69 | 1005.0 | |
| 20260505200518 | 16 | 0.0 | 0.0 | 0.00 | 0.00 | 0.00 | 68 | 1004.8 | |
| 20260505195518 | 16 | 0.0 | 0.0 | 0.00 | 0.00 | 0.00 | 66 | 1004.6 | |
| 20260505194558 | 16 | 0.0 | 0.0 | 0.00 | 0.00 | 0.00 | 66 | 1004.6 | |
| 20260505193518 | 16 | 0.0 | 0.0 | 0.00 | 0.00 | 0.00 | 65 | 1004.5 | |
| 20260505192538 | 17 | 0.0 | 0.0 | 0.00 | 0.00 | 0.00 | 63 | 1004.5 | |
| 20260505191518 | 17 | 0.0 | 0.0 | 0.00 | 0.00 | 0.00 | 62 | 1004.4 | |
| 20260505190538 | 18 | 0.0 | 0.0 | 0.00 | 0.00 | 0.00 | 61 | 1004.3 | |
| 20260505185558 | 18 | 0.0 | 0.0 | 0.00 | 0.00 | 0.00 | 59 | 1004.3 | |
| 20260505184538 | 19 | 0.0 | 0.0 | 0.00 | 0.00 | 0.00 | 57 | 1004.3 | |
| 20260505183518 | 20 | 87 | 0.0 | 1.6 | 0.00 | 0.00 | 0.00 | 55 | 1004.1 |
| 20260505182558 | 20 | 0.0 | 0.0 | 0.00 | 0.00 | 0.00 | 53 | 1004.1 | |
| 20260505181539 | 20 | 0.0 | 1.6 | 0.00 | 0.00 | 0.00 | 53 | 1004.1 | |
| 20260505180517 | 21 | 0.0 | 0.0 | 0.00 | 0.00 | 0.00 | 51 | 1004.1 | |
| 20260505175518 | 21 | 0.0 | 0.0 | 0.00 | 0.00 | 0.00 | 50 | 1004.2 | |
| 20260505174518 | 22 | 0.0 | 0.0 | 0.00 | 0.00 | 0.00 | 48 | 1004.0 | |
| 20260505173517 | 22 | 94 | 4.8 | 9.7 | 0.00 | 0.00 | 0.00 | 47 | 1004.1 |
| 20260505172518 | 22 | 139 | 1.6 | 4.8 | 0.00 | 0.00 | 0.00 | 46 | 1004.1 |
| 20260505171518 | 23 | 159 | 0.0 | 6.4 | 0.00 | 0.00 | 0.00 | 45 | 1004.0 |
| 20260505170537 | 23 | 73 | 0.0 | 3.2 | 0.00 | 0.00 | 0.00 | 44 | 1004.2 |
| 20260505165558 | 23 | 195 | 1.6 | 4.8 | 0.00 | 0.00 | 0.00 | 44 | 1004.1 |
| 20260505164517 | 24 | 208 | 4.8 | 14.5 | 0.00 | 0.00 | 0.00 | 44 | 1004.1 |
| 20260505163517 | 24 | 247 | 1.6 | 17.7 | 0.00 | 0.00 | 0.00 | 42 | 1004.2 |
| 20260505162518 | 24 | 231 | 4.8 | 19.3 | 0.00 | 0.00 | 0.00 | 42 | 1004.3 |
| 20260505161518 | 24 | 237 | 3.2 | 12.9 | 0.00 | 0.00 | 0.00 | 41 | 1004.5 |
| 20260505160517 | 24 | 0.0 | 11.3 | 0.00 | 0.00 | 0.00 | 41 | 1004.7 |